Regional Weather Roundup
Issued by NWS

Home | Current Version | Previous Version | Graphics & Text | Print | Product List | Glossary On
Versions: 1 2 3 4 5 6 7 8 9 10 11 12 13 14 15 16 17 18 19 20 21 22 23 24 25 26 27 28 29 30 31 32 33 34 35 36 37 38 39 40 41 42 43 44 45 46 47 48 49 50
000
ASUS43 KIND 280609
RWRIN

WEATHER ROUNDUP FOR INDIANA
NATIONAL WEATHER SERVICE INDIANAPOLIS IN
100 AM EST SAT FEB 28 2015

NOTE: "FAIR" INDICATES FEW OR NO CLOUDS BELOW 12,000 FEET WITH NO
SIGNIFICANT WEATHER AND/OR OBSTRUCTIONS TO VISIBILITY.

* - STATION DOES NOT REPORT WEATHER SUCH AS PRECIPITATION OR FOG.

+ - STATION NOT QUALITY CONTROLLED BY THE NATIONAL WEATHER SERVICE.
    USE DATA WITH CAUTION...ESPECIALLY DEWPOINT AND RELATIVE
    HUMIDITY OBSERVATIONS.

INZ001>003-010>013-019-020-280700-
NORTHWEST INDIANA

CITY           SKY/WX    TMP DP  RH WIND       PRES   REMARKS
GARY /AIRPORT/ PTCLDY     1  -8  68 CALM      30.69S
KNOX *+          N/A     -4 -17  54 CALM      30.67F
LA PORTE +     PTCLDY    -7 -13  78 CALM      30.67S
6HR MIN TEMP:  -9; 6HR MAX TEMP:  11;

MICHIGAN CITY+ PTCLDY     1  -8  66 CALM      30.68R
MONTICELLO +   MOCLDY    -1  -5  83 CALM      30.68F
6HR MIN TEMP:  -2; 6HR MAX TEMP:   9;

RENSSELAER +   MOCLDY     0  -2  92 CALM      30.69S
VALPARAISO     PTCLDY    -1  -7  75 CALM      30.67S
6HR MIN TEMP:  -2; 6HR MAX TEMP:   9;


$$

LMZ046-743>745-280700-
SOUTHERN LAKE MICHIGAN

STATION/POSITION TIME  TEMP WIND        PRES
                       AIR  DIR/SP/G
                 (UTC) (F)  (DEG/KT/KT) (MB)
MICHIGAN CITY    0600    5  180/  8/  8   N/A

$$

INZ004-005-014>016-021>024-280700-
NORTH CENTRAL INDIANA

CITY           SKY/WX    TMP DP  RH WIND       PRES   REMARKS
GOSHEN         PTCLDY    -2  -9  72 S3        30.66R
6HR MIN TEMP:  -2; 6HR MAX TEMP:  13;

LOGANSPORT +   PTCLDY    -2  -6  84 CALM      30.69S
PERU/GRISSOM   PTCLDY     1  -4  80 S2        30.66S
6HR MIN TEMP:   0; 6HR MAX TEMP:   9;

ROCHESTER +    PTCLDY     1  -4  78 CALM      30.68R
SOUTH BEND     PTCLDY    -1  -9  68 SW3       30.66R
6HR MIN TEMP:  -2; 6HR MAX TEMP:  13;

WARSAW +       PTCLDY     1  -4  78 CALM      30.66S

$$

INZ006>009-017-018-025>027-280700-
NORTHEAST INDIANA

CITY           SKY/WX    TMP DP  RH WIND       PRES   REMARKS
ANGOLA *+      CLEAR     -8 -18  59 CALM      30.64R
FORT WAYNE     PTCLDY     3  -2  79 CALM      30.68R
6HR MIN TEMP:   2; 6HR MAX TEMP:  12;

HUNTINGTON +   PTCLDY     2  -4  77 CALM      30.67R
6HR MIN TEMP:   1; 6HR MAX TEMP:  14;


$$

INZ028-029-035-036-043>045-051>053-280700-
WEST CENTRAL INDIANA

CITY           SKY/WX    TMP DP  RH WIND       PRES   REMARKS
CRAWFORDSVL +  MOCLDY    -5 -12  73 NE3       30.66S
6HR MIN TEMP:  -5; 6HR MAX TEMP:   9;

GREENCASTLE +  PTCLDY     9  -6  52 CALM      30.66S
LAFAYETTE      MOCLDY     1  -4  79 CALM      30.69F
6HR MIN TEMP:   1; 6HR MAX TEMP:  10;

TERRE HAUTE    PTCLDY     3  -2  79 N3        30.67F
6HR MIN TEMP:   1; 6HR MAX TEMP:  13;


$$

INZ030>032-037>040-046>048-054>057-064-065-280700-
CENTRAL INDIANA

CITY           SKY/WX    TMP DP  RH WIND       PRES   REMARKS
CP ATTERBURY + PTCLDY     3   0  85 CALM      30.68R
FRANKFORT +    PTCLDY    -4  -9  81 CALM      30.67F
6HR MIN TEMP:  -6; 6HR MAX TEMP:  11;

GREENWOOD *+   PTCLDY     9  -2  61 NE3       30.66S
INDIANAPOLIS   PTCLDY     9  -1  64 NE3       30.65S
6HR MIN TEMP:   9; 6HR MAX TEMP:  13;

-EAGLE CREEK   MOCLDY     4  -2  76 N3        30.65F
6HR MIN TEMP:   4; 6HR MAX TEMP:  12;

KOKOMO *+      PTCLDY     0  -6  78 CALM      30.68S
6HR MIN TEMP:   0; 6HR MAX TEMP:  10;

MARION +       PTCLDY     1  -4  82 CALM      30.67F
MT COMFORT *+  PTCLDY     0  -9  65 CALM      30.66S
SHELBYVILLE    PTCLDY     6  -4  63 NE5       30.66S WCI  -3
6HR MIN TEMP:   4; 6HR MAX TEMP:  15;

ZIONSVILLE +   PTCLDY    -1  -6  79 CALM      30.66S
6HR MIN TEMP:  -2; 6HR MAX TEMP:  11;


$$

INZ033-034-041-042-049-050-058-059-280700-
EAST CENTRAL INDIANA

CITY           SKY/WX    TMP DP  RH WIND       PRES   REMARKS
MUNCIE         PTCLDY     0  -4  83 CALM      30.66S
6HR MIN TEMP:  -1; 6HR MAX TEMP:  13;


$$

INZ060-061-067>069-081>083-085>088-280700-
SOUTHWEST INDIANA

CITY           SKY/WX    TMP DP  RH WIND       PRES   REMARKS
EVANSVILLE     CLOUDY    19   7  59 NE8       30.65F WCI   9
6HR MIN TEMP:  19; 6HR MAX TEMP:  22;

HUNTINGBURG *+ CLEAR     16   5  62 N8        30.64F WCI   5
6HR MIN TEMP:  16; 6HR MAX TEMP:  19;

WASHINGTON +   PTCLDY    11  -1  58 N3        30.66S
6HR MIN TEMP:   8; 6HR MAX TEMP:  16;


$$

INZ062-063-066-070>080-084-089>092-280700-
SOUTH CENTRAL AND SOUTHEAST INDIANA

CITY           SKY/WX    TMP DP  RH WIND       PRES   REMARKS
BLOOMINGTON    PTCLDY     3  -2  79 CALM      30.64F
6HR MIN TEMP:   2; 6HR MAX TEMP:  16;

NORTH VERNON + PTCLDY     5  -2  72 NE3       30.66S
SEYMOUR +      PTCLDY     7  -2  66 N3        30.67S

$$




USA.gov is the U.S. government's official web portal to all federal, state and local government web resources and services.